Wind_Speed
26 27 26 27 27 28 29 29 29 29 29 29 29 30 30 30 31 31 32 33 33 33 34 35 35 36 37 38 39 39 39 39 40 40 41 41 42 42 42 43 43 42 43 44
27 27 27 28 29 29 30 30 31 30 30 31 30 30 30 29 30 31 31 31 32 33 34 34 35 36 37 38 39 39 40 40 40 40 41 42 43 43 43 43 44 44 44 44
27 27 27 28 28 29 30 31 31 32 32 31 32 31 29 29 29 29 29 30 30 31 32 33 35 36 37 38 38 40 40 40 41 41 42 42 43 43 44 44 44 45 44 44
27 27 27 28 29 29 30 31 31 32 32 32 32 33 29 30 30 30 30 30 30 31 31 32 33 34 36 37 38 39 40 41 41 42 42 43 44 44 44 44 45 45 45 45
27 28 28 28 29 29 30 30 31 32 32 33 33 34 31 30 30 30 31 31 31 31 32 33 33 34 35 36 38 38 40 41 42 43 43 44 44 44 44 45 45 46 46 46
28 28 29 29 29 30 30 30 31 32 32 34 32 34 34 31 30 31 31 32 32 33 33 33 34 34 35 36 37 38 39 41 42 42 43 44 44 45 45 45 45 46 46 46
28 28 29 29 28 29 29 30 31 32 32 33 32 33 33 32 31 32 32 33 33 33 33 33 33 34 35 36 37 38 39 40 42 43 43 44 44 44 45 45 45 46 46 47
28 28 28 28 28 29 29 29 30 32 33 33 33 34 32 32 32 33 33 33 34 34 34 34 35 35 36 37 37 38 39 40 41 42 43 44 45 45 46 46 47 46 47 47
29 29 28 28 28 29 29 29 30 32 33 34 34 34 33 32 33 34 34 34 34 34 34 35 36 37 37 37 38 39 39 40 40 41 42 43 45 46 47 47 48 48 48 48
29 30 29 29 29 29 30 30 30 31 34 34 35 35 34 33 33 33 34 34 34 34 35 35 36 37 38 38 39 39 40 40 41 42 43 44 45 46 47 48 49 49 49 49
30 31 31 30 30 29 29 30 31 32 34 36 37 35 34 34 34 35 34 34 35 35 35 36 37 38 39 39 39 40 40 41 41 42 44 44 45 45 47 48 48 50 51 50
30 31 31 30 30 30 30 31 32 33 34 36 37 36 33 34 35 36 36 36 36 37 37 37 37 38 39 39 39 40 41 41 42 43 43 44 45 46 47 48 49 49 50 51
32 32 31 30 30 30 31 31 32 33 35 36 37 37 34 35 35 36 36 36 37 37 38 38 38 38 39 39 40 40 41 42 43 43 44 44 45 46 46 48 49 50 50 51
33 33 33 33 33 33 33 33 33 34 36 37 37 36 35 36 36 36 36 36 37 38 39 40 40 40 40 40 40 41 41 42 43 44 45 45 46 47 47 48 49 50 51 52
33 34 33 34 34 34 34 34 35 36 37 38 37 37 36 36 36 36 36 36 37 38 39 40 40 40 40 41 41 41 42 42 44 45 45 46 47 48 48 49 49 50 51 52
33 34 34 34 34 35 35 34 35 35 36 37 37 37 35 35 35 36 36 36 36 37 38 39 39 39 40 40 40 41 42 43 44 44 45 46 47 48 49 50 51 51 52 53
33 34 35 35 34 35 35 33 34 35 35 35 36 35 34 35 35 35 35 36 37 37 38 38 38 39 39 40 40 41 42 43 44 44 45 46 48 49 50 50 51 52 53 54
33 34 35 36 36 37 35 33 34 34 34 33 34 34 34 35 35 35 36 36 37 37 37 38 38 39 39 40 40 41 42 43 44 44 45 46 47 49 50 51 51 52 53 54
32 33 35 36 37 38 34 34 34 34 33 33 34 34 34 34 35 36 37 37 37 37 38 38 38 39 39 40 41 41 42 42 43 44 45 46 47 48 49 50 51 52 53 54
33 34 35 37 38 38 34 34 34 35 35 34 35 35 35 35 36 36 37 37 37 38 38 39 39 39 40 40 41 42 42 43 44 44 45 46 47 48 49 50 51 52 53 54
34 35 35 36 37 37 35 35 35 35 35 34 34 35 35 36 37 38 38 38 38 39 39 39 40 40 42 42 42 43 43 44 44 45 45 46 47 48 49 50 51 52 53 53
35 36 35 36 37 37 35 36 36 37 36 36 36 37 37 37 38 38 39 39 39 40 40 40 40 41 42 42 43 43 43 44 45 46 47 47 48 49 49 50 51 51 52 53
35 36 36 36 36 36 35 36 37 37 37 38 38 38 39 38 38 39 40 40 40 40 40 41 41 42 42 42 43 43 44 45 46 47 47 48 49 50 50 51 51 52 52 53
35 35 37 38 37 37 37 37 38 38 38 38 39 39 39 39 39 41 41 42 42 42 42 42 42 42 43 43 43 44 45 45 46 47 47 48 49 50 51 51 52 52 52 53
36 36 37 37 37 38 38 39 39 39 38 38 39 40 40 40 41 42 43 42 42 42 42 42 42 42 43 43 43 44 44 45 46 46 47 48 48 49 50 51 51 52 52 53
36 36 37 37 37 39 39 39 40 39 39 39 40 40 40 41 42 42 42 42 41 41 42 42 42 42 42 43 43 44 44 45 45 46 46 46 47 47 48 49 50 51 52 52
Wind_Direction
285 283 282 280 277 275 274 272 271 270 269 267 265 263 262 262 264 264 263 263 263 262 261 261 260 259 258 257 255 254 254 254 255 254 254 253 253 253 253 253 253 253 253 253
285 283 282 280 279 276 275 273 272 271 270 269 267 265 264 264 265 266 266 266 265 263 261 261 260 260 259 258 256 255 255 255 255 255 255 254 254 254 254 254 254 253 254 254
287 286 283 281 279 276 274 275 274 272 271 270 269 266 265 267 266 266 267 267 267 265 263 261 260 260 260 259 257 256 256 256 255 255 255 255 254 254 255 254 254 255 256 256
287 286 284 281 280 278 276 276 275 273 272 271 271 270 266 268 268 268 268 268 267 266 265 264 263 261 260 260 258 257 257 256 256 256 256 255 255 254 254 254 254 255 256 256
289 287 285 283 283 281 280 278 277 276 275 273 271 272 269 270 270 270 269 269 267 265 265 265 265 264 262 260 259 259 258 258 257 256 256 256 255 254 254 255 255 255 256 256
291 289 288 287 285 284 282 281 279 278 277 275 273 273 272 272 273 272 271 270 269 268 267 265 264 264 263 262 261 260 259 259 258 257 256 256 255 254 254 255 256 256 256 256
293 291 290 289 287 284 283 282 281 280 278 277 275 273 273 275 275 274 273 272 271 269 269 267 266 264 264 264 264 262 262 261 260 258 256 255 255 254 254 254 256 257 258 257
297 294 293 291 289 288 285 283 282 281 281 279 276 275 276 276 277 276 276 274 273 271 271 270 269 267 267 266 265 264 263 262 261 259 257 256 254 255 255 255 255 257 258 258
298 296 295 292 291 289 288 284 282 281 280 278 277 277 278 278 278 278 277 277 275 274 273 271 270 269 268 268 266 264 263 262 261 260 258 257 256 255 256 257 258 258 259 260
299 298 297 295 292 290 288 286 282 280 281 281 280 280 281 280 279 280 279 277 277 276 275 272 270 270 269 268 267 265 263 263 262 261 260 259 258 257 257 258 258 259 259 260
298 298 298 295 292 290 288 284 283 281 280 282 282 282 283 283 282 281 280 279 278 277 276 275 273 271 270 269 267 265 263 263 262 262 261 260 260 260 259 259 260 260 259 259
298 297 296 294 293 290 288 286 284 283 283 282 282 282 283 284 283 283 282 280 279 277 276 275 274 273 272 270 268 267 265 263 263 262 261 261 260 260 261 261 261 261 261 261
297 296 295 293 291 290 288 287 285 284 283 282 282 284 283 283 284 283 282 280 278 277 276 275 274 273 272 271 269 268 266 264 263 263 262 262 261 261 262 262 262 262 262 261
295 293 293 294 293 291 289 288 285 283 283 283 283 284 282 282 283 283 282 281 279 278 277 275 275 274 273 272 271 270 268 266 264 264 264 264 263 263 263 263 263 263 262 262
294 293 293 292 291 290 289 288 286 284 283 284 284 283 282 281 282 283 282 281 280 280 278 277 276 275 275 273 272 271 269 268 267 266 265 265 265 264 265 264 264 264 263 263
293 293 293 292 291 289 288 288 287 285 284 285 285 284 284 282 282 282 281 280 280 281 280 278 276 275 274 274 273 272 271 270 269 268 267 266 266 266 266 265 264 263 264 264
294 293 293 292 291 289 288 290 288 287 287 287 287 287 285 283 283 282 280 280 281 282 281 279 277 276 275 274 274 274 273 272 271 270 269 268 268 267 267 266 265 264 265 265
294 294 294 294 292 289 293 292 289 288 287 288 289 289 287 286 285 283 282 283 283 283 282 281 280 280 278 276 275 275 274 273 273 272 271 270 270 269 268 268 267 266 266 265
293 293 291 291 291 292 293 292 292 290 288 288 288 289 288 287 285 283 284 284 284 283 282 282 281 280 279 278 277 277 277 276 275 274 273 272 271 271 270 269 267 267 267 267
293 292 291 291 291 293 296 293 291 291 289 289 290 288 288 288 286 285 284 285 286 285 284 283 282 280 279 279 279 278 278 278 277 276 275 274 272 271 270 270 269 269 268 268
292 292 291 291 290 291 294 292 291 289 290 290 290 290 288 288 288 287 285 285 285 286 285 284 283 282 280 280 280 280 280 279 278 277 276 275 274 273 272 271 270 270 270 269
292 292 291 290 290 292 293 292 291 290 290 289 288 288 288 288 287 286 286 286 286 287 286 285 284 284 284 283 281 281 281 280 279 278 277 276 276 275 274 273 272 272 271 271
292 291 290 289 290 291 291 291 291 290 289 288 288 287 287 288 287 287 287 287 288 288 288 287 285 285 285 284 283 282 281 281 280 278 278 277 277 276 276 275 274 274 273 272
292 291 290 289 289 289 289 290 291 291 291 290 288 287 287 288 289 288 288 288 288 289 289 288 287 286 285 285 284 284 283 282 281 280 279 279 278 277 277 277 276 275 274 273
293 292 292 291 291 289 289 290 290 290 290 290 289 288 288 288 288 288 287 288 288 289 289 288 288 287 286 286 285 285 284 283 283 282 282 281 280 279 278 277 277 277 276 275
294 293 292 292 292 291 290 289 289 290 290 290 291 291 290 290 290 289 289 289 289 289 290 289 289 288 287 286 286 286 285 285 284 284 284 283 281 280 279 279 278 278 278 277
Height
5724 5723 5721 5719 5718 5716 5715 5714 5713 5712 5710 5709 5708 5708 5709 5709 5709 5709 5709 5709 5708 5708 5708 5708 5708 5709 5710 5711 5712 5713 5715 5716 5717 5719 5720 5722 5724 5725 5727 5728 5730 5732 5733 5734
5717 5716 5714 5712 5710 5708 5707 5705 5704 5704 5702 5700 5700 5700 5701 5701 5701 5701 5701 5700 5699 5699 5699 5699 5699 5699 5700 5701 5702 5703 5705 5706 5707 5708 5710 5712 5713 5714 5716 5718 5719 5721 5722 5724
5709 5709 5706 5704 5702 5700 5699 5697 5696 5695 5694 5692 5691 5692 5694 5693 5693 5693 5692 5692 5691 5690 5690 5690 5690 5690 5691 5691 5692 5694 5694 5696 5697 5698 5699 5701 5702 5704 5706 5707 5709 5710 5711 5713
5701 5700 5698 5696 5694 5692 5691 5690 5688 5686 5685 5684 5684 5682 5686 5685 5684 5684 5684 5683 5682 5682 5681 5681 5681 5681 5681 5682 5682 5683 5684 5685 5686 5687 5688 5690 5691 5693 5695 5696 5697 5699 5700 5701
5694 5692 5690 5688 5687 5684 5683 5681 5680 5677 5676 5675 5675 5673 5677 5676 5676 5676 5675 5674 5673 5673 5672 5672 5671 5671 5672 5672 5672 5673 5673 5674 5675 5676 5677 5679 5680 5682 5683 5685 5686 5687 5688 5690
5687 5684 5682 5681 5679 5677 5675 5673 5671 5669 5667 5666 5668 5665 5666 5668 5668 5667 5666 5665 5664 5664 5663 5662 5662 5661 5662 5662 5662 5662 5663 5664 5664 5665 5666 5667 5668 5670 5671 5673 5674 5675 5677 5678
5680 5677 5675 5673 5671 5669 5667 5666 5663 5660 5658 5658 5659 5656 5658 5659 5658 5657 5656 5655 5654 5653 5653 5653 5652 5652 5652 5652 5652 5652 5652 5653 5653 5654 5655 5656 5657 5658 5660 5661 5662 5663 5664 5666
5672 5671 5668 5665 5663 5661 5659 5658 5656 5653 5650 5649 5648 5647 5650 5650 5648 5647 5646 5645 5644 5644 5643 5643 5642 5642 5642 5641 5641 5641 5641 5642 5642 5642 5643 5644 5645 5646 5648 5649 5650 5651 5652 5653
5664 5663 5660 5658 5655 5653 5651 5649 5648 5644 5641 5639 5638 5639 5640 5640 5639 5637 5636 5635 5634 5634 5633 5632 5632 5631 5631 5631 5630 5630 5630 5630 5630 5631 5631 5632 5633 5634 5635 5636 5637 5638 5639 5640
5656 5654 5653 5650 5648 5645 5643 5641 5639 5635 5632 5630 5629 5629 5631 5630 5629 5628 5626 5624 5624 5623 5622 5621 5621 5620 5620 5619 5619 5618 5618 5618 5619 5619 5620 5620 5621 5622 5622 5623 5624 5625 5626 5626
5649 5646 5644 5642 5639 5637 5635 5633 5629 5627 5624 5621 5619 5622 5622 5620 5618 5617 5616 5614 5613 5611 5610 5609 5609 5609 5608 5608 5607 5607 5606 5606 5606 5607 5607 5608 5608 5609 5609 5610 5610 5611 5612 5612
5641 5638 5635 5634 5631 5628 5625 5623 5621 5619 5616 5612 5609 5613 5613 5611 5608 5606 5605 5603 5601 5600 5599 5598 5597 5597 5596 5595 5595 5594 5594 5594 5594 5594 5594 5594 5595 5595 5596 5596 5597 5596 5597 5598
5632 5629 5626 5625 5624 5620 5617 5614 5612 5609 5606 5603 5600 5604 5603 5600 5598 5596 5594 5592 5590 5589 5587 5586 5585 5585 5584 5583 5582 5582 5581 5581 5581 5581 5581 5581 5582 5582 5582 5582 5582 5582 5582 5583
5623 5620 5618 5616 5613 5610 5608 5606 5603 5599 5596 5593 5592 5592 5593 5589 5587 5585 5583 5580 5578 5577 5575 5574 5573 5572 5571 5570 5570 5569 5568 5568 5568 5568 5568 5568 5568 5568 5569 5568 5568 5568 5568 5568
5614 5611 5609 5607 5604 5600 5598 5596 5593 5589 5587 5584 5583 5582 5582 5579 5577 5575 5572 5569 5567 5565 5564 5562 5561 5560 5559 5558 5557 5556 5556 5555 5555 5554 5554 5554 5554 5554 5554 5554 5554 5554 5553 5553
5605 5602 5600 5598 5595 5590 5588 5587 5584 5580 5577 5574 5572 5571 5572 5569 5566 5563 5561 5558 5556 5554 5552 5551 5549 5548 5547 5546 5545 5544 5543 5542 5541 5541 5540 5540 5540 5540 5539 5539 5539 5539 5539 5538
5596 5592 5589 5587 5585 5580 5578 5579 5575 5571 5568 5565 5562 5563 5561 5558 5555 5553 5550 5548 5546 5544 5541 5539 5537 5536 5535 5533 5532 5531 5530 5529 5528 5527 5527 5526 5525 5525 5524 5524 5524 5524 5523 5523
5586 5583 5578 5575 5573 5568 5573 5569 5565 5561 5559 5556 5553 5552 5549 5547 5545 5542 5540 5537 5535 5533 5531 5528 5526 5524 5523 5521 5520 5519 5517 5516 5515 5514 5513 5511 5510 5510 5509 5508 5508 5508 5507 5507
5577 5573 5568 5565 5560 5558 5561 5559 5554 5550 5549 5547 5543 5541 5539 5536 5533 5532 5529 5526 5524 5521 5519 5517 5515 5513 5511 5509 5508 5506 5504 5503 5502 5500 5498 5497 5496 5495 5494 5493 5492 5491 5491 5490
5568 5564 5560 5555 5550 5547 5552 5548 5543 5540 5538 5537 5533 5530 5528 5524 5522 5522 5518 5515 5513 5510 5508 5505 5503 5501 5499 5497 5495 5494 5492 5490 5488 5486 5484 5483 5481 5479 5478 5477 5476 5475 5474 5473
5558 5553 5550 5545 5540 5538 5540 5536 5532 5530 5529 5526 5522 5519 5516 5514 5512 5510 5507 5504 5501 5499 5496 5493 5491 5489 5486 5484 5482 5480 5478 5476 5474 5472 5470 5468 5466 5464 5463 5462 5460 5459 5458 5457
5547 5543 5539 5535 5531 5532 5529 5525 5522 5519 5517 5514 5510 5508 5505 5502 5500 5497 5495 5492 5489 5487 5484 5481 5478 5476 5473 5471 5469 5467 5464 5462 5460 5458 5456 5453 5451 5449 5447 5445 5444 5442 5441 5440
5536 5533 5528 5526 5524 5521 5517 5514 5511 5507 5505 5502 5499 5496 5493 5490 5488 5485 5483 5480 5477 5474 5471 5468 5465 5463 5460 5457 5455 5453 5450 5448 5445 5443 5441 5438 5436 5434 5431 5430 5428 5426 5424 5423
5525 5522 5518 5514 5513 5510 5506 5502 5499 5496 5493 5490 5487 5484 5481 5478 5476 5473 5470 5467 5464 5461 5458 5455 5452 5450 5447 5444 5441 5438 5436 5433 5430 5428 5425 5423 5420 5418 5415 5413 5411 5409 5408 5406
5515 5510 5507 5503 5502 5498 5496 5492 5488 5485 5481 5478 5475 5472 5469 5466 5463 5460 5457 5454 5451 5448 5445 5442 5439 5437 5434 5430 5427 5424 5421 5418 5416 5413 5410 5408 5405 5402 5399 5397 5394 5392 5390 5388
5504 5500 5496 5493 5490 5486 5484 5480 5477 5474 5470 5467 5464 5460 5457 5454 5451 5447 5444 5441 5438 5435 5432 5429 5426 5423 5420 5417 5414 5410 5407 5404 5401 5398 5395 5392 5389 5386 5383 5381 5378 5374 5373 5370